Hourly Data Report for April 28, 2018

TORONTO CITY
ONTARIO
Current Station Operator: ECCC - MSC

43°40'00.000" N
79°24'00.000" W
112.50 m
6158355
71508
XTO

Download Data

Hourly Data (April 2018)
Hourly Data Report for April 28, 2018
TIME
LST
Temp Definition
°C
Dew Point Definition
°C
Rel Hum Definition
%
Precip. Amount Definition
mm

Wind Dir Definition
10's deg

Wind Spd Definition
km/h
Visibility Definition
km
Stn Press Definition
kPa
Hmdx Definition


Wind Chill Definition


Weather Definition


00:00 8.9 6.6 85 0.4 LegendMM LegendMM   99.22     LegendNANA
01:00 8.8 6.5 86 1.0 LegendMM LegendMM   99.16     LegendNANA
02:00 8.8 6.7 87 0.4 LegendMM LegendMM   99.18     LegendNANA
03:00 7.9 5.4 84 0.0 LegendMM LegendMM   99.18     LegendNANA
04:00 7.7 5.5 86 0.0 LegendMM LegendMM   99.20     LegendNANA
05:00 7.1 4.5 84 0.0 LegendMM LegendMM   99.21     LegendNANA
06:00 7.3 4.9 85 0.0 LegendMM LegendMM   99.31     LegendNANA
07:00 7.7 4.7 81 0.0 LegendMM LegendMM   99.34     LegendNANA
08:00 7.3 4.4 82 0.3 LegendMM LegendMM   99.42     LegendNANA
09:00 6.6 3.7 82 0.0 LegendMM LegendMM   99.46     LegendNANA
10:00 6.4 3.5 82 0.0 LegendMM LegendMM   99.52     LegendNANA
11:00 5.6 2.8 82 0.5 LegendMM LegendMM   99.59     LegendNANA
12:00 5.6 2.6 81 0.7 LegendMM LegendMM   99.64     LegendNANA
13:00 5.9 2.1 76 0.3 LegendMM LegendMM   99.69     LegendNANA
14:00 6.1 1.1 70 0.0 LegendMM LegendMM   99.79     LegendNANA
15:00 6.2 0.3 66 0.0 LegendMM LegendMM   99.85     LegendNANA
16:00 6.0 -0.6 63 0.0 LegendMM LegendMM   99.95     LegendNANA
17:00 4.6 -1.5 65 0.0 LegendMM LegendMM   100.05     LegendNANA
18:00 3.0 -2.3 68 0.0 LegendMM LegendMM   100.13     LegendNANA
19:00 2.3 -2.7 69 0.0 LegendMM LegendMM   100.19     LegendNANA
20:00 2.0 -2.9 70 0.0 LegendMM LegendMM   100.28     LegendNANA
21:00 2.1 -3.1 69 0.0 LegendMM LegendMM   100.33     LegendNANA
22:00 2.0 -3.3 68 0.0 LegendMM LegendMM   100.37     LegendNANA
23:00 1.9 -3.3 69 0.0 LegendMM LegendMM   100.39     LegendNANA

Notes on Data Quality.

Legend

  • E = Estimated
  • M = Missing
  • NA = Not Available*
  • [empty] = Indicates an unobserved value
Date modified: